TimeCST,TemperatureF,Dew PointF,Humidity,Sea Level PressureIn,VisibilityMPH,Wind Direction,Wind SpeedMPH,Gust SpeedMPH,PrecipitationIn,Events,Conditions,WindDirDegrees,DateUTC
12:53 AM,24.1,15.1,69,30.30,9.0,SSW,10.4,-,0.00,Snow,Light Snow,210,2013-12-11 06:53:00
1:53 AM,24.1,15.1,69,30.30,9.0,SSW,9.2,-,0.00,Snow,Light Snow,210,2013-12-11 07:53:00
2:53 AM,25.0,15.1,66,30.31,9.0,SSW,11.5,-,0.00,Snow,Light Snow,210,2013-12-11 08:53:00
3:53 AM,23.0,14.0,68,30.33,9.0,SW,11.5,-,0.00,Snow,Light Snow,220,2013-12-11 09:53:00
4:53 AM,24.1,15.1,69,30.36,9.0,WSW,13.8,18.4,0.00,,Clear,240,2013-12-11 10:53:00
5:53 AM,24.1,16.0,71,30.39,10.0,West,9.2,-,0.00,,Clear,260,2013-12-11 11:53:00
6:53 AM,24.1,17.1,75,30.44,9.0,WNW,10.4,-,0.00,Snow,Light Snow,300,2013-12-11 12:53:00
7:34 AM,24.1,18.0,77,30.44,9.0,NW,12.7,-,0.00,Snow,Light Snow,320,2013-12-11 13:34:00
7:53 AM,25.0,19.0,78,30.50,9.0,NW,10.4,-,0.00,Snow,Light Snow,320,2013-12-11 13:53:00
8:12 AM,26.1,19.9,78,30.47,9.0,NNW,11.5,-,0.00,Snow,Light Snow,340,2013-12-11 14:12:00
8:53 AM,27.0,17.1,66,30.54,10.0,North,16.1,-,0.00,,Clear,350,2013-12-11 14:53:00
9:53 AM,28.0,15.1,58,30.58,10.0,North,15.0,-,N/A,,Clear,350,2013-12-11 15:53:00
10:53 AM,28.9,12.9,51,30.61,10.0,North,15.0,-,N/A,,Clear,350,2013-12-11 16:53:00
11:53 AM,28.9,14.0,54,30.61,10.0,NNW,15.0,19.6,N/A,,Clear,340,2013-12-11 17:53:00
12:53 PM,28.9,8.1,41,30.60,10.0,North,18.4,-,N/A,,Clear,350,2013-12-11 18:53:00
1:53 PM,30.0,10.9,45,30.60,10.0,NNW,12.7,-,0.00,,Clear,340,2013-12-11 19:53:00
2:53 PM,28.9,7.0,40,30.60,10.0,NNW,10.4,-,N/A,,Clear,340,2013-12-11 20:53:00
3:53 PM,27.0,3.9,37,30.61,10.0,NNW,9.2,-,N/A,,Clear,340,2013-12-11 21:53:00
4:53 PM,21.9,1.9,42,30.63,9.0,NW,9.2,-,0.00,Snow,Light Snow,310,2013-12-11 22:53:00
5:53 PM,19.0,-0.0,43,30.66,9.0,NW,6.9,-,0.00,,Clear,320,2013-12-11 23:53:00
6:53 PM,15.1,-0.0,51,30.67,10.0,North,6.9,-,N/A,,Clear,350,2013-12-12 00:53:00
7:53 PM,15.1,1.0,54,30.69,10.0,North,5.8,-,N/A,,Clear,350,2013-12-12 01:53:00
8:53 PM,15.1,-0.9,49,30.69,10.0,NNW,3.5,-,N/A,,Clear,340,2013-12-12 02:53:00
9:53 PM,12.0,1.0,61,30.68,10.0,Calm,Calm,-,N/A,,Clear,0,2013-12-12 03:53:00
10:53 PM,10.9,1.0,64,30.67,10.0,East,3.5,-,N/A,,Clear,100,2013-12-12 04:53:00
11:53 PM,12.0,1.0,61,30.65,10.0,SE,4.6,-,N/A,,Clear,140,2013-12-12 05:53:00